Weather Roundup
Issued by NWS Chicago, IL

Home | Current Version | Previous Version | Text Only | Print | Product List | Glossary On
Versions: 1 2 3 4 5 6 7 8 9 10 11 12 13 14 15 16 17 18 19 20 21 22 23 24 25 26 27 28 29 30 31 32 33 34 35 36 37 38 39 40 41 42 43 44 45 46 47 48 49 50
000
NZUS59 KLOT 230021
HRRLOT

CHICAGO AREA WEATHER ROUNDUP
NATIONAL WEATHER SERVICE CHICAGO/ROMEOVILLE IL
700 PM CDT FRI MAY 22 2015

NOTE: "FAIR" INDICATES FEW OR NO CLOUDS BELOW 12,000 FEET WITH NO
SIGNIFICANT WEATHER AND/OR OBSTRUCTIONS TO VISIBILITY.

* THESE STATIONS ARE NOT UNDER NWS QUALITY CONTROL. THEY ALSO MAY NOT
  REPORT WEATHER SUCH AS PRECIPITATION OR FOG.

ILZ005-006-012>014-019>023-230100-
NORTHEAST ILLINOIS

CITY           SKY/WX    TMP DP  RH WIND       PRES   REMARKS
OHARE          CLOUDY    57  25  29 E10       30.25F
6HR MIN TEMP:  57; 6HR MAX TEMP:  66;

MIDWAY         CLOUDY    57  28  33 E12       30.26S
6HR MIN TEMP:  57; 6HR MAX TEMP:  68;

AURORA         CLOUDY    65  34  31 E10       30.23R
6HR MIN TEMP:  65; 6HR MAX TEMP:  74;

LANSING*       PTSUNNY   56  30  37 NE8       30.26S
JOLIET*        CLOUDY    63  37  37 E8        30.24R
WAUKEGAN       PTSUNNY   51  29  42 E7        30.26S
6HR MIN TEMP:  51; 6HR MAX TEMP:  58;

DUPAGE AIRPORT CLOUDY    62  30  29 E10       30.23F
6HR MIN TEMP:  62; 6HR MAX TEMP:  72;

WHEELING       PTSUNNY   56  24  29 E7        30.27F
6HR MIN TEMP:  56; 6HR MAX TEMP:  61;

KANKAKEE*      CLOUDY    65  39  37 NE10      30.23S
MORRIS*        CLOUDY    67  35  30 E14       30.21R
LEWIS AIRPORT* CLOUDY    60  32  34 E13       30.24S
NORTHERLY IS     N/A     50  35  56 NE8         N/A
$$

WIZ051-052-058>065-066-070>072-230100-
SOUTHEAST WISCONSIN

CITY           SKY/WX    TMP DP  RH WIND       PRES   REMARKS
MILWAUKEE      PTSUNNY   50  28  42 SE7       30.28R
6HR MIN TEMP:  50; 6HR MAX TEMP:  57;

KENOSHA*       PTSUNNY   54  27  35 E10       30.27R
RACINE*        PTSUNNY   52  27  38 SE7       30.29R
BURLINGTON     PTSUNNY   57  29  34 E9        30.25S
WAUKESHA       PTSUNNY   57  30  35 E10       30.26R
WEST BEND      MOSUNNY   54  23  30 SE7       30.26R
$$

INZ001>003-010>013-019-020-230100-
NORTHWEST INDIANA

CITY           SKY/WX    TMP DP  RH WIND       PRES   REMARKS
GARY*          CLOUDY    55  36  47 NE12      30.26F
MICHIGAN CITY* NOT AVBL
RENSSELAER*    NOT AVBL
VALPARAISO     PTSUNNY   62  34  35 NE8       30.26F
$$

LMZ740>746-230100-
SOUTHERN LAKE MICHIGAN

STATION/POSITION TIME  SKY/WX   TEMP WIND        PRES    VSBY
                                AIR  DIR/SP/G
                 (UTC)          (F)  (DEG/KT/KT) (MB)    (MI)
HARRISON CRIB    0000            48   90/  9/ 10   N/A
BURNHAM HARBOR   0000            49   70/  5/  7   N/A
CALUMET HARBOR   2300            50   50/ 10/ 12   N/A
BURNS HARBOR     2300            53   50/  7/  9 1026.1R
MICHIGAN CITY    0000            52   30/ 11/ 12   N/A
$$

ABBREVIATIONS USED IN REMARKS
   TC - TEMPERATURE IN CELSIUS
  WCI - WIND CHILL INDEX
   HX - HEAT INDEX
  VSB - VISIBILITY
$$



USA.gov is the U.S. government's official web portal to all federal, state and local government web resources and services.